Wind_Speed
41 44 49 51 55 59 61 62 63 63 64 63 65 64 59 57 52 52 57 63 76 85 97 98 93 88 87 80 78 78 73 64 66 69 68 58 53 51 43 44 39 38 44 59 60
44 45 50 52 56 60 62 63 63 66 69 73 73 70 67 62 60 56 51 63 72 82 85 94 103 100 94 86 82 78 75 71 76 74 70 62 58 54 46 45 42 39 42 50 59
50 51 57 60 66 68 68 68 70 75 78 78 76 76 73 67 64 58 60 64 69 73 83 85 100 104 101 96 92 88 76 79 80 77 75 67 62 57 50 46 44 43 38 44 50
56 56 60 63 67 70 73 77 80 83 83 83 79 80 75 69 65 63 64 63 65 69 73 85 90 105 106 104 102 94 86 82 84 82 79 72 68 61 55 51 45 42 37 33 35
56 59 61 64 70 75 81 84 86 90 91 90 86 81 77 72 74 64 62 65 65 67 71 75 88 98 109 115 113 96 94 91 88 85 82 78 71 67 58 55 49 44 40 36 32
61 66 67 70 76 82 84 88 92 97 95 95 89 82 78 73 72 68 57 62 64 68 72 76 80 95 105 119 116 113 103 97 91 88 85 81 75 72 63 59 52 48 46 40 36
64 68 72 77 82 83 87 93 94 98 99 97 92 84 77 73 66 67 61 57 63 67 72 77 81 88 98 109 121 120 113 109 100 91 87 87 79 70 70 63 57 52 50 45 42
72 74 77 83 86 86 88 93 101 102 100 99 96 87 75 76 67 64 59 59 60 67 74 78 81 85 91 101 114 126 123 114 100 98 92 91 78 79 78 70 65 58 55 50 45
75 79 83 84 89 93 96 98 101 101 106 101 99 89 78 73 68 64 60 58 61 65 72 79 80 80 93 99 110 123 124 115 115 104 100 95 83 84 83 77 70 64 59 56 52
77 83 89 93 94 99 102 105 105 107 109 103 96 88 80 75 68 66 60 55 58 64 71 77 75 78 87 96 101 107 121 124 120 112 106 99 92 89 87 83 77 71 66 62 57
83 90 97 99 101 104 108 112 113 109 112 103 96 83 82 74 68 64 59 56 57 61 71 79 75 69 77 90 97 110 121 129 126 123 116 105 102 93 92 88 83 78 72 67 63
92 97 99 102 107 111 113 118 118 111 107 100 93 86 82 75 65 61 58 55 58 63 69 76 66 71 85 87 96 108 113 123 130 131 124 112 105 99 98 92 88 84 78 73 69
95 98 105 110 116 118 121 122 119 113 109 102 88 85 79 73 63 56 56 55 60 63 72 70 59 75 77 80 87 99 105 114 127 133 130 118 113 106 100 97 93 89 84 79 72
98 101 105 116 120 118 120 121 121 117 106 97 86 80 75 70 65 58 57 56 61 66 71 58 61 72 74 73 80 91 98 112 130 136 134 125 111 110 105 99 96 91 87 81 76
101 105 112 114 121 123 124 125 119 115 108 92 83 76 70 67 65 60 61 58 62 67 68 55 66 71 77 67 78 84 98 111 131 138 137 134 125 111 112 106 98 93 89 86 82
101 107 111 120 121 128 127 124 121 112 108 95 81 75 70 64 65 61 61 61 61 65 61 61 69 69 61 65 81 91 103 112 127 140 147 137 129 122 118 102 94 96 93 88 87
103 108 116 124 129 130 129 128 124 115 108 92 81 75 70 66 60 58 58 59 60 59 62 66 66 60 64 65 83 95 103 114 128 141 141 136 135 122 113 107 104 97 94 91 90
108 116 122 125 134 139 137 130 122 113 107 92 85 77 70 63 56 50 51 56 57 59 59 62 62 62 64 65 75 87 100 109 120 135 144 142 142 120 116 111 105 103 98 97 96
112 117 122 130 138 139 136 130 121 113 104 92 85 76 69 60 52 46 47 50 53 54 55 62 61 61 62 67 78 86 103 106 115 136 147 144 134 128 121 118 111 106 101 96 94
117 123 129 137 142 145 135 132 121 111 100 90 83 74 65 57 47 45 44 43 46 51 54 59 59 56 61 69 77 83 90 105 112 131 140 140 137 129 126 119 113 108 103 99 97
115 125 135 139 141 146 143 134 113 104 98 89 79 68 61 54 46 42 40 40 42 46 49 52 57 59 63 69 72 84 91 104 113 127 138 145 135 130 129 122 118 110 107 107 103
122 131 136 146 150 152 140 127 110 99 93 84 74 60 53 48 46 41 37 40 40 42 45 51 56 57 59 70 78 84 89 98 106 116 131 137 135 138 133 124 121 115 115 114 109
130 135 142 148 154 151 142 121 103 95 86 77 67 56 45 44 41 38 35 36 39 40 43 48 55 57 65 71 76 84 91 99 107 118 132 139 139 141 135 128 123 120 118 115 109
130 137 144 153 153 149 135 110 100 94 81 72 63 50 42 39 38 33 33 33 36 39 42 45 55 61 69 79 85 91 92 97 103 112 125 136 139 141 136 131 126 123 120 115 111
133 140 148 157 147 148 128 112 103 92 76 62 56 48 38 35 35 32 31 31 32 37 41 48 56 60 66 74 81 89 93 100 105 106 118 128 136 141 136 132 129 124 122 117 112
143 146 150 153 144 146 119 115 102 89 76 61 53 45 37 34 33 30 32 28 30 36 41 50 55 59 64 72 82 89 94 102 102 106 108 120 131 139 138 133 132 126 124 120 118
142 149 151 154 144 138 117 109 96 82 70 59 50 45 39 37 32 31 29 28 28 35 40 49 51 56 63 70 79 86 92 94 98 102 103 113 125 142 142 139 136 134 128 125 122
Wind_Direction
349 350 346 344 342 340 339 336 334 332 328 325 321 318 313 305 293 277 264 255 250 245 240 237 238 235 238 234 233 231 227 224 228 228 230 225 228 233 231 237 235 235 233 233 231
354 349 345 347 346 341 337 336 334 329 326 321 319 316 311 305 297 286 277 258 249 244 239 235 234 234 233 232 233 231 226 223 226 228 227 223 228 229 229 233 234 236 233 232 233
354 350 346 343 343 339 337 334 331 328 325 322 318 315 312 305 299 288 270 261 253 246 242 238 232 231 231 231 233 231 226 225 226 226 227 223 226 226 226 232 231 233 236 231 233
350 348 344 342 341 340 337 336 334 330 328 326 321 317 312 308 294 279 274 268 260 252 244 239 236 230 228 230 232 229 225 226 226 225 226 223 223 224 223 229 229 231 233 231 231
346 344 342 343 341 338 337 335 332 330 328 326 322 320 314 306 288 286 282 273 261 253 247 239 235 232 227 229 232 227 228 226 228 225 224 225 221 223 220 225 227 227 227 223 219
343 341 340 340 339 337 336 334 332 329 326 324 320 319 316 300 296 293 285 273 264 259 248 242 234 231 228 226 229 229 227 224 226 227 223 223 222 221 220 223 223 225 226 223 217
343 342 340 337 336 335 334 333 331 328 325 322 320 316 315 303 295 290 285 275 264 258 252 245 238 230 228 227 226 226 226 226 224 227 225 222 222 220 222 221 221 225 224 222 222
340 338 338 335 335 334 333 331 330 329 326 321 319 318 312 308 299 290 281 271 260 255 250 246 240 230 226 226 225 225 224 224 223 225 225 221 218 221 222 219 219 219 224 220 221
336 337 337 335 334 333 332 330 328 328 326 323 321 317 313 309 302 292 279 270 263 255 248 246 242 234 227 223 223 223 223 223 224 225 224 223 214 221 221 218 219 217 221 221 219
336 335 336 335 333 332 331 332 331 331 327 325 322 316 313 308 300 296 286 275 262 256 250 245 242 238 231 225 222 224 221 221 221 225 224 223 213 221 220 217 218 217 217 220 220
334 335 335 334 333 333 331 330 330 331 329 325 320 319 312 308 299 295 286 274 266 254 247 243 240 241 237 234 222 220 220 217 219 223 222 220 214 218 219 217 217 217 215 218 219
334 335 335 334 333 332 332 330 332 329 328 326 319 316 312 306 298 292 284 272 266 257 249 244 244 239 236 230 222 219 219 215 216 220 223 218 215 215 219 218 215 216 216 216 217
336 335 336 335 334 333 332 330 329 328 327 324 321 312 311 304 299 289 281 270 262 255 253 248 241 239 236 231 223 219 216 215 214 218 221 218 215 211 217 217 216 216 216 217 217
337 337 334 335 334 333 332 333 330 326 325 323 320 316 309 305 299 291 278 267 258 253 249 249 242 239 239 231 226 217 215 213 213 216 217 218 216 212 217 217 217 217 217 217 218
337 336 336 337 334 333 332 332 329 327 324 324 319 316 310 304 296 288 280 268 256 250 250 242 238 237 233 226 223 209 215 212 212 213 215 216 215 212 214 216 216 217 217 217 219
335 336 337 338 336 335 335 333 327 326 328 326 321 316 311 303 296 286 276 269 259 252 246 238 239 237 234 225 220 213 211 210 210 213 214 214 216 213 213 217 216 219 219 218 220
331 336 335 338 338 338 336 334 331 328 327 326 322 318 312 305 297 286 276 267 259 251 242 235 237 234 229 219 217 211 209 209 210 211 213 214 217 213 211 214 216 218 220 220 220
331 335 336 337 338 338 337 337 332 329 327 326 323 320 313 306 299 286 272 263 257 252 239 239 231 230 224 219 219 214 212 211 211 211 211 211 214 210 212 212 217 218 219 220 221
334 339 338 338 339 339 338 336 331 330 328 327 324 320 314 308 301 287 274 262 256 247 238 235 228 226 220 220 216 211 210 209 211 213 212 208 210 208 213 212 214 218 220 222 225
336 337 339 340 340 341 338 336 332 329 328 326 323 320 314 308 301 288 278 267 257 248 238 233 227 224 214 216 214 214 209 211 210 211 211 211 209 206 212 213 214 217 220 223 224
339 338 338 339 342 341 340 334 331 331 328 325 324 321 315 309 301 289 277 268 256 245 236 231 224 222 212 211 213 210 210 211 211 210 210 208 207 207 211 212 215 215 220 222 224
340 338 339 341 342 342 338 334 330 331 327 326 324 321 315 307 298 290 277 266 254 242 232 227 221 219 211 210 211 211 209 211 211 210 212 208 205 207 209 210 214 215 218 222 223
339 339 339 343 343 340 338 333 331 330 329 326 323 321 315 305 300 293 277 263 254 241 230 225 219 215 209 208 209 210 210 210 212 210 208 207 205 207 207 209 212 215 217 221 224
338 341 343 343 342 341 336 333 333 333 332 327 323 321 315 307 299 289 276 263 253 240 228 221 218 213 208 207 206 206 207 209 213 213 211 206 205 205 206 208 212 215 217 219 222
339 343 345 344 342 341 336 335 336 333 332 330 324 319 316 305 298 289 277 264 250 239 230 219 218 214 209 209 209 208 206 208 211 212 210 208 204 205 206 208 211 214 217 219 220
339 339 343 347 343 340 338 335 335 332 332 331 324 318 310 300 296 286 279 264 248 239 228 221 218 214 208 208 210 210 209 210 210 212 209 208 205 206 205 207 212 212 216 218 221
341 340 342 342 343 342 338 335 333 331 330 329 324 319 308 301 296 288 276 263 245 238 228 222 218 213 208 207 209 210 210 211 211 213 210 208 204 206 206 207 210 213 215 218 220
Height
10776 10770 10764 10757 10749 10742 10735 10726 10719 10711 10703 10697 10690 10683 10677 10672 10667 10662 10662 10662 10663 10660 10674 10692 10701 10709 10718 10728 10736 10740 10757 10767 10767 10765 10767 10781 10785 10789 10794 10797 10801 10802 10807 10811 10813
10771 10763 10757 10750 10743 10735 10727 10718 10709 10700 10692 10683 10674 10667 10660 10654 10647 10643 10647 10636 10631 10635 10648 10659 10673 10682 10696 10706 10716 10727 10741 10750 10741 10750 10758 10770 10775 10780 10786 10788 10792 10795 10797 10800 10805
10763 10755 10747 10739 10730 10722 10714 10706 10697 10688 10680 10670 10659 10649 10642 10634 10625 10624 10614 10610 10611 10616 10624 10637 10644 10656 10674 10682 10695 10707 10727 10726 10727 10735 10745 10757 10765 10770 10777 10780 10782 10786 10790 10793 10796
10757 10750 10743 10733 10722 10711 10702 10693 10681 10670 10660 10650 10641 10630 10621 10613 10599 10591 10591 10593 10594 10598 10605 10611 10620 10633 10649 10664 10669 10685 10704 10708 10710 10721 10731 10743 10749 10761 10766 10769 10776 10780 10785 10787 10788
10749 10743 10734 10724 10714 10701 10687 10675 10663 10651 10639 10628 10618 10608 10600 10590 10564 10574 10574 10571 10570 10573 10578 10584 10596 10600 10626 10635 10642 10672 10681 10688 10693 10704 10717 10727 10740 10746 10757 10760 10767 10772 10776 10779 10781
10740 10730 10721 10709 10699 10687 10674 10659 10644 10631 10620 10608 10597 10589 10578 10560 10553 10546 10552 10547 10547 10547 10552 10556 10564 10574 10589 10608 10621 10643 10653 10668 10674 10690 10703 10715 10726 10735 10745 10750 10757 10763 10766 10772 10775
10728 10718 10707 10695 10685 10676 10664 10650 10633 10617 10603 10589 10576 10566 10554 10533 10532 10522 10521 10524 10520 10521 10524 10528 10534 10544 10567 10579 10604 10611 10628 10643 10659 10676 10689 10698 10716 10732 10730 10740 10746 10753 10757 10764 10769
10714 10705 10696 10684 10672 10661 10651 10637 10617 10598 10581 10564 10548 10538 10528 10509 10503 10496 10495 10491 10492 10494 10495 10497 10504 10519 10534 10550 10563 10580 10596 10618 10653 10654 10671 10680 10710 10710 10711 10724 10732 10740 10747 10754 10761
10702 10693 10684 10674 10660 10644 10630 10615 10598 10577 10555 10539 10522 10508 10499 10486 10474 10468 10468 10467 10467 10468 10470 10468 10478 10494 10501 10518 10527 10546 10582 10616 10625 10637 10649 10664 10689 10688 10695 10709 10720 10728 10736 10744 10750
10690 10677 10665 10654 10640 10624 10609 10592 10575 10555 10530 10513 10498 10480 10468 10463 10451 10443 10442 10445 10446 10444 10443 10444 10454 10465 10478 10489 10521 10546 10562 10584 10601 10617 10629 10647 10667 10665 10679 10692 10703 10714 10722 10732 10740
10672 10660 10646 10631 10615 10600 10584 10567 10548 10531 10507 10488 10468 10461 10436 10437 10426 10421 10417 10418 10417 10421 10416 10414 10426 10453 10468 10467 10485 10494 10516 10550 10579 10583 10594 10622 10638 10647 10658 10673 10689 10700 10709 10720 10730
10656 10642 10627 10610 10595 10577 10556 10537 10520 10500 10489 10462 10442 10429 10417 10407 10404 10396 10392 10394 10391 10391 10390 10393 10420 10438 10427 10433 10452 10469 10491 10526 10546 10552 10567 10598 10619 10630 10637 10659 10671 10683 10696 10705 10716
10639 10623 10604 10585 10566 10549 10530 10510 10488 10471 10459 10441 10423 10404 10391 10381 10378 10374 10368 10368 10366 10366 10360 10374 10408 10393 10400 10414 10430 10451 10473 10504 10520 10526 10547 10576 10587 10609 10624 10639 10654 10667 10682 10692 10705
10623 10608 10590 10570 10551 10531 10508 10484 10461 10443 10430 10417 10396 10383 10366 10357 10350 10347 10344 10345 10341 10339 10337 10361 10373 10369 10375 10392 10407 10427 10458 10468 10484 10495 10520 10549 10582 10595 10605 10625 10640 10655 10671 10684 10693
10608 10591 10573 10554 10532 10510 10486 10460 10438 10416 10399 10390 10371 10357 10347 10332 10324 10321 10315 10317 10315 10315 10317 10342 10336 10340 10344 10376 10382 10410 10412 10434 10452 10471 10497 10514 10535 10584 10582 10596 10624 10644 10657 10671 10679
10596 10580 10559 10536 10514 10489 10462 10438 10415 10390 10372 10356 10343 10328 10317 10309 10295 10293 10289 10288 10289 10291 10300 10309 10306 10317 10342 10355 10358 10371 10379 10401 10422 10443 10446 10493 10524 10544 10564 10602 10622 10626 10640 10656 10667
10580 10565 10544 10520 10495 10470 10440 10413 10385 10362 10341 10328 10316 10302 10289 10279 10272 10265 10260 10260 10262 10268 10274 10276 10291 10305 10313 10328 10329 10346 10362 10376 10385 10402 10439 10487 10500 10537 10572 10583 10594 10612 10627 10641 10649
10562 10544 10522 10498 10471 10444 10412 10384 10357 10335 10318 10301 10286 10274 10259 10251 10245 10241 10237 10234 10234 10243 10252 10258 10271 10280 10293 10306 10318 10336 10345 10364 10382 10395 10415 10454 10462 10535 10553 10564 10584 10594 10606 10617 10629
10547 10525 10498 10473 10444 10416 10386 10361 10333 10309 10292 10276 10262 10249 10234 10228 10223 10218 10215 10211 10211 10220 10230 10236 10249 10259 10274 10284 10294 10307 10314 10346 10363 10374 10387 10424 10471 10504 10529 10544 10559 10578 10592 10608 10621
10522 10498 10478 10449 10422 10393 10365 10335 10307 10285 10268 10252 10240 10226 10212 10206 10202 10196 10194 10194 10194 10200 10209 10216 10230 10242 10254 10263 10272 10299 10318 10317 10335 10349 10380 10415 10448 10493 10506 10532 10551 10565 10583 10593 10602
10510 10485 10457 10429 10398 10367 10338 10312 10287 10266 10247 10230 10216 10206 10193 10185 10180 10178 10177 10176 10177 10183 10191 10201 10213 10220 10233 10247 10262 10270 10285 10294 10310 10332 10356 10387 10441 10483 10491 10515 10531 10553 10563 10569 10580
10491 10465 10433 10399 10367 10342 10313 10290 10269 10247 10230 10211 10197 10189 10178 10169 10163 10161 10160 10158 10161 10166 10173 10181 10194 10205 10222 10228 10237 10253 10268 10278 10291 10319 10346 10382 10424 10445 10472 10499 10513 10530 10533 10542 10557
10468 10441 10414 10383 10349 10323 10298 10273 10251 10232 10213 10195 10183 10173 10166 10155 10151 10146 10145 10146 10147 10151 10158 10167 10177 10189 10197 10210 10224 10238 10248 10264 10279 10298 10318 10352 10397 10424 10454 10480 10494 10505 10515 10531 10551
10451 10428 10395 10366 10328 10302 10272 10251 10228 10209 10195 10177 10167 10159 10151 10142 10136 10133 10131 10133 10135 10140 10145 10155 10162 10167 10175 10185 10200 10212 10232 10250 10264 10284 10310 10333 10379 10408 10439 10462 10473 10486 10501 10519 10538
10431 10406 10379 10342 10308 10275 10242 10222 10204 10187 10178 10167 10154 10144 10136 10127 10122 10119 10119 10120 10124 10128 10135 10141 10146 10155 10166 10183 10196 10207 10221 10232 10247 10271 10292 10330 10363 10391 10427 10443 10455 10469 10486 10506 10523
10405 10383 10360 10330 10287 10257 10227 10206 10189 10169 10155 10147 10137 10129 10122 10114 10110 10107 10106 10109 10112 10116 10121 10126 10133 10145 10159 10171 10183 10199 10212 10220 10240 10255 10286 10317 10353 10379 10407 10426 10438 10454 10466 10486 10499
10393 10365 10334 10315 10278 10247 10216 10196 10177 10159 10145 10133 10124 10116 10107 10101 10098 10096 10095 10097 10101 10103 10109 10114 10125 10138 10148 10161 10175 10190 10204 10222 10238 10251 10279 10304 10346 10356 10382 10397 10412 10428 10445 10461 10480